Terminal Aerodrome Forecast
Issued by NWS Louisville, KY

Home | Current Version | Previous Version | Text Only | Print | Product List | Glossary On
Versions: 1 2 3 4 5 6 7 8 9 10 11 12 13 14 15 16 17
000
FTUS43 KLMK 291700
TAFLEX
TAF
KLEX 291730Z 2918/3018 29006KT P6SM FEW050
     FM300000 VRB03KT P6SM SKC
     FM300800 00000KT 4SM BR SKC
     FM301300 29004KT P6SM FEW040 FEW250=

USA.gov is the U.S. government's official web portal to all federal, state and local government web resources and services.